Other Public Products
Issued by NWS Grand Forks, ND

Home | Current Version | Previous Version | Text Only | Print | Product List | Glossary Off
Versions: 1 2 3 4 5 6 7 8 9 10 11 12 13 14 15 16 17 18 19 20 21 22 23 24 25 26 27 28 29 30 31 32 33 34 35 36 37 38 39 40 41 42 43 44 45 46 47 48 49 50

000
FPUS83 KFGF 181331
OPUFGF
PRAIRIE TO PINES WEATHER ROUNDUP
NATIONAL WEATHER SERVICE EASTERN NORTH DAKOTA/GRAND FORKS ND
700 AM CST WED JAN 18 2017

 **SATELLITE DATA USED TO AUGMENT SKY COVER AT AUTOMATED STATIONS**
 *****  WEATHER ACROSS EASTERN NORTH DAKOTA  *****

CITY           SKY/WX    TMP DP  RH WIND       PRES   REMARKS
GRAND FORKS    FAIR      24  17  74 S15       29.69S WCI  11
GRAND FORKS AF FAIR      23  18  81 S12       29.69R WCI  11
GRAND CITY NWS NOT AVBL
BUXTON           N/A     23  20  87 S9          N/A  WCI  13
DEVILS LAKE    FAIR      28  23  81 SW13      29.68S WCI  17
FARGO          FAIR      22  17  81 S10       29.76F WCI  11
WAHPETON ARPT  FAIR      19  16  86 SE5       29.81R WCI  13
$$

 *****  WEATHER ACROSS CENTRAL AND WESTERN NORTH DAKOTA  *****

CITY           SKY/WX    TMP DP  RH WIND       PRES   REMARKS
JAMESTOWN      FAIR      28  21  75 W12       29.73S WCI  18
BISMARCK       FAIR      18  12  77 E5        29.76R WCI  11
MINOT          FAIR      35  27  72 SW16      29.66R
MINOT AFB      FAIR      34  27  76 W16       29.64R WCI  23
GARRISON         N/A     31  23  72 SW6       29.68F
WILLISTON      FAIR      26  22  84 CALM      29.68S
DICKINSON      FAIR      32  22  66 W16       29.69F WCI  21
HETTINGER      FAIR      22  16  78 CALM      29.77R
$$

 *****  OTHER OBSERVATIONS NORTHEAST NORTH DAKOTA  *****

CITY           SKY/WX    TMP DP  RH WIND       PRES   REMARKS
WALHALLA       NOT AVBL
LANGDON        NOT AVBL
CAVALIER         N/A     23  19  86 S7        29.66R WCI  15
GRAFTON        FAIR      19  18  93 S9        29.70R WCI   9
CANDO          NOT AVBL
FORT TOTTEN      N/A     31  24  76 SW3       29.95S
ROLLA            N/A    N/A N/A N/A MISG        N/A
RUGBY            N/A     23  19  86 SW8       29.66F WCI  14
 ***** THE ABOVE OBSERVATIONS ARE NON NWS ARE NOT QUALITY
        CONTROLLED AND MAY MIS-REPORT RAIN FOR SNOW...
$$

 *****  OTHER OBSERVATIONS SOUTHEAST NORTH DAKOTA *****

CITY           SKY/WX    TMP DP  RH WIND       PRES   REMARKS
COOPERSTOWN    FAIR      23  19  86 SW8       29.73R WCI  14
VALLEY CITY    FAIR      23  21  93 S7        29.76R WCI  15
OAKES          NOT AVBL
GWINNER        FAIR      23  19  86 SW18      29.79S WCI   9
SHEYENNE NWR     N/A     21  15  76 W7        29.95S WCI  12
BUFFALO          N/A     24  16  71 S8          N/A  WCI  15
WYNDMERE         N/A     14  12  92 S3          N/A
 ***** THE ABOVE OBSERVATIONS ARE NON NWS ARE NOT QUALITY
       CONTROLLED AND MAY MIS-REPORT RAIN FOR SNOW...
$$

  *****  WEATHER ACROSS NORTHERN MINNESOTA  *****

CITY           SKY/WX    TMP DP  RH WIND       PRES   REMARKS
FLAG ISLAND    FAIR      12  10  92 SE6       29.66S WCI   3
WARROAD        FAIR      21  18  86 W3        29.69R
ROSEAU         FAIR      19  16  86 S12       29.67R WCI   7
HALLOCK        FAIR      18  16  93 S7        29.67R WCI   8
THF RVR FALLS  FAIR      21  17  84 S14       29.70S WCI   8
HALSTAD          N/A     19  14  80 S9          N/A  WCI   8
FOSSTON        FAIR      21  18  86 S17       29.73S WCI   7
BAUDETTE       FAIR      21  15  78 S6        29.67R WCI  13
WASKISH        FAIR      18  16  93 CALM      29.70R
CROOKSTON      FAIR      19  16  86 S13       29.73R WCI   7
$$
  *****  WEATHER ACROSS CENTRAL AND WEST MINNESOTA  *****

CITY           SKY/WX    TMP DP  RH WIND       PRES   REMARKS
BEMIDJI        FAIR      26  20  77 SW7       29.72R WCI  18
PARK RAPIDS    FAIR      16  11  80 S8        29.75S WCI   5
WADENA         FAIR      18  18 100 S5        29.79S WCI  11
DETROIT LAKES  FAIR      25  21  86 S8        29.77F WCI  16
MOORHEAD       FAIR      19  16  86 S9        29.78F WCI   9
FERGUS FALLS   FAIR      19  18  93 S7        29.86R WCI  10
ELBOW LAKE     FAIR      20  18  92 SE9       29.82R WCI   9
MORRIS MN      FAIR      21  18  86 S7        29.81R WCI  13
STAPLES        FAIR      19  19 100 S7        29.80F WCI  10
WHEATON        FAIR      28  23  80 S5        29.83R WCI  23
$$
  *****  WEATHER ELSEWHERE ACROSS MINNESOTA  *****

CITY           SKY/WX    TMP DP  RH WIND       PRES   REMARKS
DULUTH         FAIR      27  25  92 SW17      29.76S WCI  14
INTRNTL FALLS  FAIR      21  15  78 SW6       29.69R WCI  13
ELY            FAIR      25  19  80 SW6       29.74R WCI  18
CLOQUET        FAIR      27  25  93 SW14G20   29.78S WCI  15
BRAINERD       FAIR      22  19  89 S8        29.81R FOG     WCI  12
HIBBING        FAIR      20  19  96 VRB3      29.74F
ALEXANDRIA     FAIR      25  21  85 SW12      29.81R WCI  14
SAINT CLOUD    FAIR      23  22  96 S6        29.85F WCI  16
MINNEAPOLIS    FAIR      30  25  81 S8        29.93F WCI  22
$$

  *****  WEATHER ACROSS SOUTH DAKOTA  *****

CITY           SKY/WX    TMP DP  RH WIND       PRES   REMARKS
SIOUX FALLS    FAIR      22  21  96 CALM      29.88F
BROOKINGS      FAIR      21  20  96 S6        29.86F WCI  13
WATERTOWN      FAIR      17  14  88 S7        29.84S WCI   8
HURON          FAIR      16  14  92 SE3       29.86S
SISSETON         N/A     37  21  52 W10G20    29.78R
ABERDEEN       FAIR      16  11  80 S10       29.83S WCI   4
MITCHELL       FAIR      21  19  92 CALM      29.87F
PIERRE         FAIR      16  11  80 CALM      29.83R
MOBRIDGE       FAIR      17  10  74 SE8       29.78S WCI   7
RAPID CITY     FAIR      27  18  69 CALM      29.79F
$$

  *****  SOME WEATHER IN NEARBY STATES *****

CITY           SKY/WX    TMP DP  RH WIND       PRES   REMARKS
GLASGOW MT     FAIR      24  20  84 SE15      29.58F WCI  11
GREAT FALLS MT FAIR      41  25  53 S21       29.60F
CHEYENNE WY    FAIR      31  11  43 NW12      29.92F WCI  22
SCOTTSBLUFF NE FAIR      25  14  63 NW12      29.91F WCI  14
OMAHA NE       FAIR      26  22  84 SE12      30.04F WCI  16
DES MOINES IA  FOG       31  30  96 S6        30.08F VSB 1/4
DAVENPORT IA   CLOUDY    32  29  88 W9        30.13S WCI  24
CHICAGO IL     DRIZZLE   35  33  92 W12       30.10R FOG
EAU CLAIRE WI  FAIR      27  25  92 S8        29.96F WCI  19
LA CROSSE WI   CLOUDY    34  29  82 S10       30.05S
$$

  *****  SOME NATIONAL WEATHER *****

CITY           SKY/WX    TMP DP  RH WIND       PRES   REMARKS
LA GUARDIA NY  CLOUDY    41  38  89 NE10      29.92R
RALEIGH NC     MOCLDY    60  55  83 W5        29.95R
ATLANTA GA     CLOUDY    63  61  93 W6        30.14R
NEW ORLEANS LA FOG       68  68 100 S5        30.14R VSB 1/4
OKLAHOMA CITY  CLOUDY    42  38  85 CALM      30.12R
ALBUQUERQUE NM MOCLDY    37  33  85 NW5       30.13S
SALT LAKE CITY FAIR      20  16  84 SE7       30.17F WCI  11
LOS ANGELES CA MOCLDY    49  45  86 SE3       30.15F
BOISE ID       CLOUDY    12   6  77 E7        30.08S HAZE    WCI   1
SEATTLE WA     LGT RAIN  45  44  97 E10       29.40F
$$

*** WEATHER ACROSS MANITOBA...SASKATCHEWAN AND ONTARIO ***
                ***ONTARIO***

CITY           SKY/WX    TMP DP  RH WIND       PRES   REMARKS
GERALDTON      MOCLDY    32  27  80 SW9       29.60S WCI  24
THUNDER BAY    PTCLDY    12  10  92 W6        29.71R WCI   3
SIOUX LOOKOUT  MOCLDY    25  19  80 W7        29.63S WCI  17
TORONTO        CLOUDY    36  34  93 W9        29.90R
BIG TROUT LK   CLOUDY    28  27  93 W13G20    29.48R WCI  18
PICKLE LAKE    CLOUDY    25  21  86 W8        29.56R WCI  16
DRYDEN         CLOUDY    21  19  93 S8        29.63F WCI  12
KENORA         PTCLDY    18  16  93 S7        29.63S WCI   8
$$
                *** MANITOBA***

CITY           SKY/WX    TMP DP  RH WIND       PRES   REMARKS
BRANDON        CLEAR     18  16  93 VRB2      29.61R
DAUPHIN        CLEAR     32  27  80 SW10      29.54R WCI  24
ISLAND LAKE    PTCLDY    23  21  93 W2        29.53R
PILOT MOUND      N/A     19  16  86 S6          N/A  WCI  11
THE PAS        CLEAR     28  23  80 E5        29.46F WCI  23
THOMPSON       CLOUDY    34  30  86 CALM      29.50R
WINNIPEG       PTCLDY    18  16  93 S9        29.61S WCI   6
LYNN LAKE      FOG       21  19  93 S3        29.42R VSB 3/8
CHURCHILL      FLURRIES   9   7  92 N15G21    29.53R WCI  -8
GILLAM         CLOUDY    34  30  86 N10       29.49R
$$
                ***SASKATCHEWAN***

CITY           SKY/WX    TMP DP  RH WIND       PRES   REMARKS
ESTEVAN        MOCLDY    28  23  80 SW16      29.62S WCI  17
KINDERSLEY     CLOUDY    36  28  75 S8        29.32F
LLOYDMINSTER   CLEAR     32  28  86 S13G18    29.22F WCI  22
PRINCE ALBERT  MOCLDY    23  21  93 VRB2      29.35F
REGINA         MOCLDY    34  27  75 S9        29.52S
YORKTON        CLEAR     27  25  93 S9        29.51S WCC1F1C2F2C3F3C4F4C5F5C6F6C7F7C8F8C9F9CaFaCbFbCcFcCdFdCe!



USA.gov is the U.S. government's official web portal to all federal, state and local government web resources and services.